Dewpoint
62 58 55 48 31 34 29 20 24 36 39 44 50 56 57 57 57 53 64 65 66 68 70 72 74 74 74 72 72 71 70 69 69 68 67 68 68 68 68 69 70 70 68 66 66 67 68 70 70
59 54 50 45 34 25 23 26 34 41 43 44 48 53 56 57 61 61 61 65 66 68 70 71 74 74 73 73 72 72 71 70 69 68 68 68 69 69 69 69 70 71 70 69 67 68 68 69 70
60 53 43 39 31 29 20 25 41 43 42 43 47 50 53 55 58 59 61 66 67 68 69 70 73 73 73 73 73 72 72 71 71 70 68 67 67 67 67 68 69 71 71 70 69 68 68 68 69
53 46 42 30 28 23 27 39 40 37 37 44 48 48 51 56 56 58 58 68 69 69 71 71 72 72 72 72 72 72 71 71 71 71 71 70 69 69 68 68 70 71 71 70 69 68 68 68 68
51 43 32 24 24 25 37 38 37 35 36 42 46 49 51 56 54 54 57 59 64 65 67 70 73 73 72 72 71 71 71 70 71 71 70 71 71 71 70 71 70 70 71 70 70 69 69 68 68
43 37 24 17 21 29 31 38 36 35 36 44 50 50 53 56 54 54 52 53 53 56 61 62 68 70 71 71 71 71 70 70 71 71 71 70 71 71 71 72 71 71 69 71 70 70 69 69 68
43 34 26 20 26 29 31 32 33 33 34 33 46 46 52 54 54 54 51 49 49 49 47 47 52 63 68 68 67 68 68 69 70 70 71 71 71 71 71 72 72 71 71 71 71 71 70 70 69
42 36 26 27 26 27 30 30 31 29 30 31 33 46 51 54 53 51 50 46 44 44 45 43 43 43 41 57 62 61 62 64 66 68 69 68 68 68 69 70 70 71 71 72 71 71 71 71 71
36 33 29 28 27 28 30 28 28 28 26 30 36 44 51 53 51 47 45 44 44 44 43 45 45 44 44 42 45 50 55 58 60 59 64 65 67 67 67 67 68 69 70 70 70 71 71 70 69
34 34 31 30 31 29 30 28 28 25 26 30 37 42 45 47 46 44 42 39 39 40 44 46 46 47 46 45 45 43 42 46 40 42 42 47 59 56 57 62 67 68 69 69 70 70 69 69 69
34 32 32 31 34 31 29 28 28 25 27 28 33 38 40 39 41 41 40 40 40 41 46 47 47 48 48 46 47 45 46 45 44 42 42 44 43 44 46 50 57 65 65 67 68 68 68 68 68
30 31 32 31 31 31 27 28 26 27 25 29 34 37 37 37 38 39 38 39 41 44 46 48 48 47 47 47 47 46 46 47 46 46 46 45 46 46 45 45 46 49 59 65 66 66 67 67 67
29 30 31 33 30 29 27 25 25 24 23 29 34 36 36 36 35 36 36 41 45 45 47 48 47 47 46 46 47 46 46 47 46 47 47 47 47 47 48 47 47 47 46 48 55 62 64 64 65
29 30 31 31 30 30 27 25 25 23 22 23 28 29 31 32 31 31 36 38 43 45 47 47 47 45 46 46 46 47 47 47 47 48 48 47 47 47 47 48 48 48 48 48 46 50 56 61 62
29 28 29 29 29 29 32 26 23 22 22 22 23 25 28 30 31 30 38 38 39 42 45 45 45 45 45 46 47 48 48 48 48 49 49 49 50 49 49 49 49 49 50 50 50 49 49 54 59
27 27 26 28 30 32 28 22 28 23 22 22 23 24 25 28 29 30 35 39 41 42 42 44 44 45 45 46 47 48 49 49 49 50 51 51 51 50 49 49 49 50 50 50 50 50 49 50 54
23 22 26 28 29 31 27 22 24 22 21 21 22 23 25 27 29 30 36 40 41 41 42 43 43 44 45 46 47 49 50 50 50 50 51 51 51 52 51 50 50 50 51 50 50 51 50 50 50
14 20 24 24 28 27 26 24 26 25 20 20 20 21 22 28 30 31 37 39 40 41 42 42 44 44 45 46 48 48 48 48 49 50 49 50 52 52 53 52 51 51 51 51 50 50 50 50 51
16 17 19 27 28 24 23 24 25 26 23 20 20 20 20 23 30 33 38 39 42 42 42 42 42 44 45 46 47 46 46 47 47 48 48 49 50 50 51 52 51 51 51 50 50 51 50 50 50
21 18 20 24 27 22 23 23 23 24 23 24 23 23 23 24 30 35 40 41 41 42 42 42 43 43 45 47 47 46 46 47 47 48 48 49 48 50 51 52 53 51 51 50 50 50 50 51 51
25 21 21 22 25 25 24 20 26 25 24 22 23 24 25 26 32 36 40 40 41 41 42 40 43 43 45 46 47 47 46 46 46 46 47 47 48 48 51 51 52 52 53 51 51 51 51 51 51
23 27 26 27 25 19 22 14 16 23 27 24 24 26 27 32 35 39 40 41 42 42 42 41 42 43 44 46 47 45 44 43 45 46 47 47 47 48 49 51 52 51 52 52 52 52 51 51 50
28 30 27 27 24 23 23 18 19 32 28 20 23 23 30 33 37 39 40 41 43 42 43 43 43 43 44 45 46 46 44 45 46 46 45 46 46 46 48 50 51 49 51 52 52 53 52 52 51
30 28 26 25 25 14 23 22 23 29 25 26 26 30 33 34 36 39 40 42 43 43 43 44 44 44 44 43 44 45 45 44 44 44 45 45 46 47 48 49 48 49 49 51 52 52 52 51 51
29 26 22 18 17 12 25 19 25 26 28 28 30 29 32 35 36 38 39 41 42 42 43 44 45 44 44 43 43 44 45 45 44 44 44 44 45 46 46 49 49 49 50 51 52 52 52 50 49
27 26 22 13 17 18 23 17 23 28 32 30 31 35 36 35 37 38 39 40 41 42 43 44 45 45 45 44 42 43 44 45 46 45 45 45 45 45 46 48 48 49 50 50 51 52 53 51 53
29 25 27 19 21 19 19 22 28 33 33 34 32 33 32 34 37 38 39 41 42 42 42 43 44 44 44 43 43 43 43 44 45 45 45 45 45 45 45 46 48 48 48 49 50 51 50 50 51
31 30 22 24 11 17 19 20 23 24 29 33 33 33 35 36 40 39 40 42 42 42 42 43 44 44 44 44 43 42 42 43 43 45 44 43 43 44 45 46 47 47 46 47 48 48 49 48 48
26 25 28 27 24 17 15 15 30 29 33 31 32 33 33 34 35 37 39 41 42 43 43 43 43 44 44 44 44 42 42 42 42 42 43 42 41 42 44 45 45 45 45 45 46 45 46 45 45
29 25 24 15 16 23 21 21 32 34 32 33 33 34 32 33 32 31 28 29 31 36 40 42 43 44 45 44 44 43 42 42 41 41 41 41 40 39 43 44 44 44 44 43 43 44 44 43 42
Lifted_Index
4 5 5 5 6 5 5 5 5 4 2 1 0 -0 -1 -1 -1 -1 -1 -2 -2 -3 -3 -3 -4 -4 -4 -3 -3 -2 -2 -1 -1 -0 -0 -1 -1 -1 -1 -1 -1 -1 -1 0 1 1 0 -0 -0
4 5 5 6 5 4 4 5 4 3 2 1 -0 -0 -1 -1 -1 -1 -1 -2 -2 -3 -3 -3 -3 -3 -3 -3 -3 -2 -2 -2 -1 -1 -0 -1 -1 -1 -1 -1 -1 -1 -1 -0 0 1 0 0 -0
4 5 6 6 5 4 4 4 4 3 2 1 -0 -0 -0 -1 -1 -1 -1 -2 -3 -3 -3 -3 -3 -3 -3 -3 -2 -2 -2 -2 -1 -1 -1 -1 -1 -1 -0 -0 -1 -1 -1 -0 0 0 1 0 0
5 5 6 6 5 5 4 4 3 3 2 1 0 0 0 0 -0 -1 -1 -2 -3 -3 -3 -3 -2 -2 -2 -2 -2 -2 -2 -2 -1 -1 -1 -1 -1 -1 -0 -0 -0 -1 -1 -0 -0 0 1 1 1
5 6 6 5 5 5 4 3 3 3 2 2 1 1 1 1 0 -0 -1 -2 -2 -2 -2 -2 -2 -2 -2 -2 -1 -1 -1 -1 -1 -1 -1 -1 -1 -1 -1 -1 -0 -0 -0 -0 -0 0 1 1 1
6 6 6 5 5 5 4 3 3 3 3 2 2 2 1 1 0 -0 -1 -1 -1 -1 -1 -0 -0 -0 -0 -0 -1 -1 -1 -1 -1 -1 -1 -1 -1 -1 -1 -1 -1 -0 -0 -1 -0 -0 0 1 1
5 6 5 5 5 5 4 3 4 4 4 3 3 3 2 1 0 0 0 0 -0 0 1 1 2 2 2 2 2 2 2 1 1 0 -0 -0 -0 -0 -0 -0 -1 -1 -1 -1 -1 -0 -0 0 0
5 5 5 5 5 5 4 4 4 4 4 3 3 3 2 1 1 1 1 1 1 2 2 3 4 5 5 6 6 6 6 5 4 3 2 1 1 1 1 0 0 -0 -0 -1 -1 -1 -1 -1 -1
5 5 6 6 5 5 5 4 4 5 4 4 3 3 3 2 1 1 2 3 4 5 6 7 7 8 9 9 10 11 11 10 9 7 6 4 3 3 2 1 1 0 -0 -1 -1 -1 -1 -1 -1
6 6 6 6 6 6 6 5 5 5 5 5 4 4 4 3 2 3 4 5 7 9 10 10 11 11 11 12 12 13 13 13 12 11 9 8 7 6 5 3 2 1 -0 -1 -1 -1 -1 -1 -1
6 6 6 6 6 6 6 6 6 6 6 6 6 6 6 5 5 6 7 9 10 11 12 12 12 12 12 13 13 13 13 13 13 12 11 10 10 9 8 7 5 3 2 0 -0 -1 -1 -1 -1
6 6 6 6 6 6 6 6 6 6 6 6 7 7 7 7 8 8 9 10 11 11 12 12 12 12 12 13 13 13 12 12 12 12 11 11 11 10 10 9 8 7 5 3 1 0 -0 -0 -1
6 6 5 6 6 6 6 6 6 7 7 7 7 8 8 8 9 10 10 11 11 11 11 12 12 13 13 13 12 12 12 11 11 11 11 11 11 11 11 10 10 9 8 7 5 4 3 2 1
6 6 5 6 6 6 6 6 6 7 7 7 7 8 8 9 9 10 11 11 12 12 12 12 12 13 13 12 12 12 11 11 11 11 11 11 11 11 11 11 11 10 10 9 8 7 6 5 4
7 6 5 6 6 7 6 6 6 7 7 7 7 8 8 9 10 11 11 12 12 12 12 12 12 12 12 12 12 11 11 11 11 11 10 10 10 10 11 11 11 11 11 10 10 9 8 7 6
6 5 5 5 6 6 6 5 5 7 7 7 8 8 8 9 10 11 11 12 11 11 11 11 12 12 12 12 11 11 11 11 10 10 10 10 10 11 11 11 11 11 11 11 10 9 9 8 8
4 4 4 4 5 6 5 4 5 7 7 7 8 8 9 9 10 11 11 11 11 11 11 11 11 11 12 12 12 11 11 11 11 11 11 11 11 11 11 11 11 11 11 10 10 9 9 8 8
4 3 3 4 5 5 4 4 5 7 7 7 8 8 8 9 10 10 11 11 11 11 11 11 11 12 12 12 12 12 12 12 12 12 12 12 11 11 11 10 10 10 10 10 10 9 8 8 7
4 3 3 4 5 5 4 4 5 6 7 7 7 8 8 9 10 10 10 10 11 11 11 11 12 12 12 12 12 13 13 14 13 13 13 12 11 11 11 10 10 10 9 9 9 8 8 7 7
4 3 3 4 5 5 4 4 5 6 6 6 7 7 7 8 9 10 10 10 10 10 11 11 12 12 13 13 13 13 14 14 14 13 13 12 11 11 10 10 9 9 9 8 8 7 7 7 7
4 4 4 4 5 5 4 4 4 5 6 6 6 7 7 8 9 9 10 10 10 10 11 11 12 13 13 12 13 13 13 13 13 13 12 11 10 10 10 10 9 9 8 8 8 7 7 7 7
5 5 5 5 4 4 4 3 3 4 5 5 6 6 7 8 9 9 10 10 10 10 11 11 12 13 13 12 12 12 12 12 12 12 11 10 10 10 11 10 10 9 9 8 8 7 7 7 7
6 7 6 6 5 4 3 3 3 3 4 5 6 7 8 9 9 10 10 10 10 10 11 11 12 12 12 12 11 11 11 11 12 12 11 11 11 11 11 11 10 10 10 9 8 7 7 7 7
7 7 6 5 4 3 3 3 3 4 4 5 6 7 8 9 9 9 9 10 10 10 10 11 11 11 11 10 10 10 10 11 11 12 12 12 12 11 11 11 11 10 10 9 8 8 7 7 7
7 5 4 2 2 2 3 3 3 4 5 6 7 7 8 9 9 9 9 9 9 10 10 10 11 10 10 9 9 10 10 10 11 12 12 13 13 12 11 11 10 10 10 9 9 8 8 8 8
5 5 3 2 1 2 3 3 4 5 6 6 7 7 8 8 9 8 9 9 9 9 9 10 10 10 9 9 9 9 9 9 10 11 12 13 13 13 12 11 10 10 9 9 9 8 8 8 8
5 5 4 3 2 2 2 3 4 5 6 6 7 7 8 8 8 8 8 8 8 8 9 9 9 9 9 9 9 9 9 9 10 11 12 13 14 13 12 11 9 9 9 9 9 9 8 9 9
6 5 5 4 2 1 2 3 3 5 6 6 7 7 8 8 8 8 8 8 8 8 8 8 9 9 9 9 9 9 9 9 10 11 12 13 14 14 13 11 10 9 9 9 9 9 9 9 9
6 6 5 4 3 2 2 2 3 4 6 6 7 7 7 7 7 7 8 8 8 8 8 9 9 9 9 9 9 9 9 10 10 11 12 13 13 14 14 12 10 9 9 9 9 9 10 10 10
6 6 5 4 3 3 2 2 4 4 5 6 7 7 7 7 7 7 8 9 9 10 10 9 9 9 9 9 9 9 10 10 10 10 11 12 13 14 14 13 11 9 9 9 9 10 10 10 10